Location: Unspecified
(34.4950°S, 58.5160°W)
Time: 00:31:19
(UTC+00:00)

SL-16 R/B - Pass Details

Date: 19 April 2026
Orbit: 841 x 845 km, 71.0° (Epoch: 12 May)

Event Time Altitude Azimuth Distance (km) Brightness Sun altitude
Exits shadow 09:12:08 - 324° (NW) 3,395 5.0 -14.7°
Rises 09:12:09 0° 324° (NW) 3,392 5.0 -14.7°
Reaches altitude 10° 09:14:41 10° 317° (NW) 2,464 4.3 -14.2°
Maximum altitude 09:20:05 45° 245° (WSW) 1,142 2.5 -13.1°
Drops below altitude 10° 09:25:33 10° 172° (S) 2,488 4.7 -12.0°
Sets 09:28:08 0° 165° (SSE) 3,429 5.5 -11.5°
